This demonstration page uses our WeatherBlox Daily Observations layout. Learn more.

Left ArrowRight Arrow

Hourly Observations for June 17, 2021

Temp ( °F °C ) Dew Point ( °F °C ) Humidity (%) Winds ( mph kmh ) Pressure ( in mb ) Visibility ( mi km ) Precip ( " mm )
12:53 am 00:53 Clear 49 9.4 35 1.7 59 59 W 3 6 30.03 1017 10 16 N/A
1:53 am 01:53 Clear 46 7.8 36 2.2 68 68 WNW 3 6 30.03 1017 10 16 N/A
2:53 am 02:53 Clear 45 7.2 35 1.7 68 68 S 3 6 30.03 1017 10 16 N/A
3:53 am 03:53 Clear 44 6.7 36 2.2 73 73 SW 10 17 30.03 1017 10 16 N/A
4:53 am 04:53 Clear 43 6.1 36 2.2 76 76 WSW 7 11 30.04 1017 10 16 N/A
5:53 am 05:53 Sunny 48 8.9 37 2.8 66 66 SW 12 19 30.04 1017 10 16 N/A
6:53 am 06:53 Sunny 54 12.2 39 3.9 57 57 SW 12 19 30.04 1017 10 16 N/A
7:53 am 07:53 Sunny 61 16.1 38 3.3 43 43 SW 13 20 30.02 1017 10 16 N/A
8:53 am 08:53 Sunny 65 18.3 38 3.3 37 37 WSW 10 17 30.02 1017 10 16 N/A
9:53 am 09:53 Sunny 68 20 38 3.3 33 33 W 9 15 30.02 1017 10 16 N/A
10:53 am 10:53 Sunny 71 21.7 38 3.3 30 30 WSW 10 17 30.01 1016 10 16 N/A
11:53 am 11:53 Sunny 75 23.9 33 0.6 22 22 W 7 11 29.98 1015 10 16 N/A
12:53 pm 12:53 Sunny 76 24.4 32 undefined 20 20 SW 15 24 29.96 1015 10 16 N/A
1:53 pm 13:53 Sunny 79 26.1 30 -1.1 17 17 W 16 26 29.95 1014 10 16 N/A
2:53 pm 14:53 Sunny 80 26.7 28 -2.2 15 15 WNW 17 28 29.93 1013 10 16 N/A
3:53 pm 15:53 Sunny 81 27.2 29 -1.7 15 15 W 15 24 29.91 1013 10 16 N/A
4:53 pm 16:53 Sunny 83 28.3 27 -2.8 13 13 W 15 24 29.89 1012 10 16 N/A
5:53 pm 17:53 Sunny 84 28.9 26 -3.3 12 12 W 22 35 29.88 1012 10 16 N/A
6:53 pm 18:53 Sunny 82 27.8 28 -2.2 14 14 WNW 17 28 29.87 1012 10 16 N/A
7:53 pm 19:53 Sunny 79 26.1 32 undefined 18 18 NW 13 20 29.88 1012 10 16 N/A
8:53 pm 20:53 Sunny 74 23.3 35 1.7 24 24 NW 8 13 29.89 1012 10 16 N/A
9:53 pm 21:53 Mostly Clear 66 18.9 37 2.8 34 34 N N/A 29.93 1014 10 16 N/A
10:53 pm 22:53 Mostly Clear 57 13.9 39 3.9 51 51 SW 10 17 29.96 1014 10 16 N/A
11:53 pm 23:53 Clear 61 16.1 40 4.4 46 46 NNE 16 26 29.98 1015 10 16 N/A

Powered by AerisWeather